Location: Ailingen
(47.6833°N, 9.5000°E)
Time: 13:40:08
(UTC+00:00)

PSLV R/B - Pass Details

Date: 18 November 2025
Orbit: 561 x 590 km, 98.0° (Epoch: 06 December)

Event Time Altitude Azimuth Distance (km) Brightness Sun altitude
Rises 17:50:02 0° 168° (SSE) 2,757 6.8 -21.3°
Reaches altitude 10° 17:52:10 10° 169° (S) 1,861 5.9 -21.7°
Maximum altitude 17:56:12 79° 256° (WSW) 581 3.4 -22.3°
Drops below altitude 10° 18:00:15 10° 344° (NNW) 1,866 6.1 -23.0°
Sets 18:02:23 0° 346° (NNW) 2,765 7.0 -23.4°
